CST,Max TemperatureF,Mean TemperatureF,Min TemperatureF,Max Dew PointF,MeanDew PointF,Min DewpointF,Max Humidity, Mean Humidity, Min Humidity, Max Sea Level PressureIn, Mean Sea Level PressureIn, Min Sea Level PressureIn, Max VisibilityMiles, Mean VisibilityMiles, Min VisibilityMiles, Max Wind SpeedMPH, Mean Wind SpeedMPH, Max Gust SpeedMPH,PrecipitationIn, CloudCover, Events, WindDirDegrees
2014-1-1,65,48,31,50,40,29,96,74,51,30.25,30.09,29.95,10,10,8,24,11,31,0.00,0,,190
2014-1-2,48,37,26,32,20,17,70,53,36,30.48,30.38,30.14,10,10,10,23,11,36,0.00,0,,339
2014-1-3,51,39,26,25,21,18,69,50,30,30.48,30.35,30.13,10,10,10,16,8,21,0.00,0,,139
2014-1-4,67,51,35,53,43,26,82,67,52,30.12,29.95,29.80,10,10,10,28,17,37,0.00,4,,182
2014-1-5,62,43,24,57,31,12,85,65,44,30.50,30.05,29.78,10,10,5,29,16,36,0.02,5,Rain,306
2014-1-6,31,23,15,11,4,-1,74,51,27,30.74,30.65,30.51,10,10,10,21,8,25,0.00,0,,337
2014-1-7,45,31,16,15,10,5,74,47,20,30.62,30.51,30.37,10,10,10,16,9,22,0.00,1,,184
2014-1-8,50,44,37,35,29,18,64,49,34,30.35,30.25,30.18,10,10,10,20,13,24,T,8,Rain,151
2014-1-9,55,48,41,54,44,35,100,93,86,30.23,30.16,30.04,10,4,1,13,6,17,0.19,8,Rain,82
2014-1-10,64,60,55,61,59,54,100,89,78,30.02,29.83,29.72,10,8,1,21,13,28,0.49,7,Rain,199
2014-1-11,66,53,40,51,39,26,100,61,22,30.11,29.98,29.83,10,7,1,17,6,24,0.00,0,,291
2014-1-12,71,55,38,51,34,28,76,49,22,30.09,29.98,29.84,10,10,10,29,14,36,0.00,0,,182
2014-1-13,65,52,38,58,40,24,87,55,22,30.10,29.94,29.81,10,10,10,24,12,31,0.00,2,,265
2014-1-14,69,51,32,33,27,18,82,48,14,30.29,30.11,30.01,10,10,10,24,10,32,T,0,,258
2014-1-15,53,44,34,26,21,17,64,45,26,30.39,30.29,30.14,10,10,10,17,7,24,0.00,0,,303
2014-1-16,62,50,37,33,27,24,64,46,27,30.17,30.10,30.06,10,10,10,20,9,24,0.00,0,,237
2014-1-17,52,42,31,22,16,9,61,40,18,30.36,30.27,30.17,10,10,10,18,7,23,0.00,1,,313
2014-1-18,65,48,31,37,26,19,69,44,19,30.23,30.15,30.05,10,10,10,21,10,28,0.00,0,,218
2014-1-19,61,48,35,28,24,18,59,39,19,30.32,30.20,30.10,10,10,5,10,5,15,0.00,0,,265
2014-1-20,73,56,39,47,37,26,64,50,35,30.13,29.99,29.86,10,10,10,21,10,28,0.00,0,,217
2014-1-21,55,42,28,24,16,8,69,45,21,30.39,30.29,30.17,10,10,9,24,9,33,0.00,0,,353
2014-1-22,61,45,28,27,21,16,75,49,22,30.21,30.14,30.06,10,10,10,14,6,18,0.00,0,,144
2014-1-23,46,39,31,26,16,3,49,40,30,30.73,30.47,30.16,10,10,9,24,14,32,T,6,Rain-Snow,28
2014-1-24,41,33,25,16,5,0,53,36,19,30.72,30.55,30.28,10,10,10,15,7,21,0.00,3,,299
2014-1-25,63,47,30,31,24,16,65,44,23,30.26,30.11,30.00,10,10,10,15,7,20,0.00,0,,226
2014-1-26,70,54,38,38,34,29,70,47,24,29.98,29.82,29.68,10,10,10,18,8,22,0.00,2,,180
2014-1-27,52,42,32,40,18,4,76,49,21,30.26,30.08,29.76,10,10,10,23,13,33,0.00,0,,16
2014-1-28,39,32,25,15,6,-5,63,42,21,30.46,30.38,30.27,10,10,9,18,9,26,0.00,2,,14
2014-1-29,44,32,19,13,7,0,67,42,17,30.49,30.38,30.25,10,10,10,12,6,16,0.00,0,,186
2014-1-30,53,40,27,45,27,12,74,58,41,30.24,30.04,29.91,10,10,10,24,13,33,0.00,5,,175
2014-1-31,72,62,51,57,53,45,86,70,53,29.94,29.86,29.81,10,10,10,25,17,33,0.00,6,,183